Wind_Speed
48 48 48 48 49 49 49 49 49 49 49 49 48 47 46 45 44 43 42 41 40 39 38 37 37 37 36 35 34 34 34 33 33 33 33 32 32 32 32 32 32 32 32
50 50 50 50 51 52 52 52 51 51 51 51 50 49 48 48 47 46 45 45 43 42 41 40 39 39 38 38 37 36 35 35 35 34 34 34 34 34 34 34 33 33 33
52 52 52 52 53 54 54 54 54 54 53 54 53 53 51 50 50 49 48 47 46 45 44 43 42 41 40 40 39 38 37 37 37 36 36 36 35 35 35 36 35 35 34
54 54 54 54 55 56 56 56 56 56 56 55 55 54 54 53 52 52 51 50 49 48 47 45 44 43 43 42 41 41 40 40 39 38 37 37 36 36 35 36 36 35 35
55 56 56 57 57 57 57 58 58 58 58 57 57 57 57 56 55 54 54 52 51 50 49 48 47 46 45 44 44 43 42 41 41 39 39 38 38 37 37 37 36 36 36
55 56 57 58 58 57 58 59 60 60 60 60 60 59 59 58 57 56 55 55 53 53 52 51 50 48 47 46 46 45 44 43 42 41 41 40 39 38 38 38 38 37 37
54 55 56 57 58 58 59 60 60 61 61 60 60 60 59 59 59 58 58 57 56 55 54 53 53 51 49 48 47 46 46 45 44 43 43 42 41 40 40 39 38 39 39
53 54 54 55 57 57 57 59 59 59 59 59 59 60 60 59 60 59 60 59 58 57 57 56 54 53 52 51 50 49 48 47 45 44 44 42 42 42 41 40 40 40 39
51 52 52 53 54 54 55 57 57 57 58 58 59 60 60 60 59 59 60 60 59 58 58 57 56 56 55 54 52 50 50 48 47 45 45 44 43 43 42 42 41 41 41
50 50 50 51 52 52 52 53 54 55 57 57 57 59 59 59 59 59 59 58 57 58 58 58 57 57 57 55 53 52 52 50 48 47 47 45 44 44 43 42 43 42 42
48 48 49 49 50 51 52 53 53 54 55 56 55 57 57 58 58 58 58 57 57 58 58 57 57 56 56 56 55 54 53 52 50 49 48 47 45 44 43 42 43 43 43
47 47 48 50 51 52 51 52 53 54 55 55 55 55 56 57 57 57 58 57 57 57 57 56 56 55 54 55 55 54 54 53 51 50 49 48 46 45 43 43 43 43 43
47 48 49 50 51 52 52 52 54 54 54 54 55 55 56 57 57 57 58 57 55 54 55 55 56 54 53 54 53 53 53 52 51 51 49 48 46 45 44 44 44 43 43
48 47 48 50 50 51 52 52 53 53 54 55 55 56 55 56 57 56 57 56 55 54 53 53 53 53 53 54 53 52 52 52 51 51 50 49 47 46 45 45 43 43 43
46 47 48 49 50 50 51 51 52 52 53 54 54 55 55 55 55 54 54 55 54 53 52 51 51 51 53 53 52 52 51 51 50 50 49 48 48 47 45 45 43 43 43
46 47 47 49 50 51 52 52 52 52 52 52 52 52 53 53 53 52 52 52 51 51 50 50 50 49 50 51 52 52 51 49 49 49 48 48 47 46 45 45 44 44 43
46 47 47 49 49 50 51 51 51 51 51 50 50 50 49 50 50 50 51 51 49 48 47 47 47 47 48 49 50 50 50 49 48 48 48 47 46 46 45 44 44 43 42
46 46 46 46 47 48 50 51 50 49 49 48 48 48 47 48 49 49 48 49 47 46 47 47 46 46 46 47 47 48 47 47 47 47 47 46 46 46 45 43 44 43 42
45 45 44 45 46 47 47 47 47 47 47 47 47 45 44 46 46 46 47 47 46 45 45 46 45 45 44 45 45 46 47 48 46 46 45 45 45 45 44 45 44 42 42
43 44 43 44 45 44 44 43 44 45 44 43 44 43 43 44 44 44 45 46 45 43 43 43 43 43 43 43 43 44 45 45 45 46 44 44 45 44 44 45 43 42 41
43 43 42 42 42 42 42 42 42 42 40 39 40 40 40 41 41 42 44 44 44 42 42 42 42 41 41 41 41 42 43 43 43 43 43 43 43 43 44 43 41 41 41
42 42 41 40 40 40 40 39 39 38 37 36 37 38 38 39 40 41 43 43 43 41 40 41 41 41 40 40 40 40 40 41 41 40 40 39 40 40 41 39 39 39 39
41 40 39 38 37 37 36 36 35 35 34 34 34 35 35 36 38 40 40 40 40 40 39 40 39 39 39 39 38 37 38 39 38 38 38 38 39 38 37 38 38 37 37
39 38 37 36 35 34 32 32 32 31 31 31 32 33 33 33 35 36 37 37 37 38 37 37 37 38 38 38 38 36 36 36 36 37 37 36 36 36 35 36 36 35 36
36 35 33 32 31 29 28 28 27 27 28 28 29 30 29 31 33 35 35 35 36 37 36 35 34 35 35 35 36 35 35 35 33 33 34 34 34 33 32 32 33 34 35
33 32 32 30 27 25 24 24 25 25 24 25 26 27 26 28 30 32 34 35 35 36 35 34 34 33 34 34 34 33 33 33 32 32 32 32 32 30 29 30 30 31 31
Wind_Direction
265 264 264 264 264 264 264 264 263 263 265 264 263 263 262 262 263 262 263 263 262 262 262 262 263 263 264 264 265 265 267 270 272 274 275 276 277 279 282 284 286 289 292
264 263 263 264 264 264 264 264 264 263 263 263 262 261 261 261 261 261 261 261 261 261 261 262 262 262 263 264 264 265 266 268 270 272 274 275 276 278 280 283 285 287 291
264 264 264 264 264 264 264 263 263 262 262 262 261 261 260 260 260 261 260 260 260 260 260 260 261 262 261 262 264 265 266 267 269 271 273 274 275 277 279 281 283 286 288
264 264 264 265 264 264 264 263 263 263 262 262 262 261 260 259 259 260 260 260 259 260 259 259 259 260 261 261 262 264 265 267 268 270 271 273 275 277 280 282 284 285 287
265 265 265 265 265 264 264 264 264 264 263 262 262 261 260 259 258 259 260 260 259 259 259 259 258 259 259 260 261 262 264 265 267 269 270 272 274 276 279 281 283 286 287
266 266 266 266 266 265 264 264 264 264 264 263 262 260 259 258 257 258 258 259 259 259 259 258 258 258 258 259 259 260 262 264 266 267 268 270 273 275 278 280 282 285 287
267 267 267 267 266 265 265 264 265 265 264 263 261 260 259 259 258 257 257 258 258 258 258 257 257 256 256 257 257 258 260 261 263 265 267 269 272 274 277 279 281 285 287
269 269 268 267 267 266 265 265 265 266 265 263 261 260 260 259 258 257 256 257 257 257 256 257 257 256 255 255 256 257 257 259 260 263 265 268 271 273 275 277 281 285 287
271 270 269 268 268 268 267 266 266 265 264 262 261 261 260 258 257 256 255 255 256 256 255 255 255 255 254 254 255 256 256 257 257 260 263 266 269 272 274 276 279 282 286
272 271 270 269 269 269 268 268 267 266 264 263 262 262 261 260 259 256 254 254 254 255 254 254 254 253 253 253 252 253 254 254 255 257 261 264 267 269 272 275 278 281 285
273 272 272 272 272 270 269 269 268 267 266 265 264 263 262 260 259 258 255 253 253 254 254 254 253 252 251 251 250 251 252 253 253 256 259 261 264 267 269 272 276 280 284
275 275 275 274 275 273 271 269 268 267 266 265 264 263 262 261 260 259 256 253 252 253 252 253 252 251 250 250 249 249 251 251 252 254 256 259 262 264 268 271 274 278 283
277 277 276 275 277 276 274 272 269 267 266 265 264 263 262 262 260 258 256 254 253 251 251 251 249 249 249 249 248 248 249 250 251 252 254 257 260 263 266 269 272 278 281
280 278 278 276 276 276 275 274 272 269 267 266 265 263 263 262 260 258 256 254 253 251 250 249 248 248 248 247 248 247 248 249 250 252 254 256 259 261 264 268 272 276 279
283 282 281 278 278 276 275 274 272 271 269 267 265 263 261 261 258 256 254 253 253 251 249 248 247 246 246 246 246 246 247 249 250 252 253 255 256 258 263 267 270 273 277
286 286 283 280 279 277 275 274 274 272 270 267 266 264 261 258 255 253 251 251 252 249 248 246 244 243 245 245 244 245 246 247 248 249 251 253 255 258 260 264 267 271 275
288 286 284 282 280 277 276 275 274 272 269 267 265 264 260 256 253 251 249 248 248 248 247 244 243 244 245 244 243 244 245 247 247 248 250 251 254 256 259 263 266 270 274
291 289 285 284 282 279 277 275 273 271 270 267 264 262 259 255 251 249 247 245 245 246 246 245 244 244 244 244 244 244 244 245 246 247 249 250 253 255 259 262 267 270 275
293 291 287 286 284 281 279 275 273 271 269 266 263 259 255 253 249 246 244 242 242 244 245 245 244 243 243 244 244 244 243 243 245 247 249 250 252 254 258 262 266 269 274
297 294 290 287 286 283 280 276 273 271 268 264 260 256 252 250 246 243 242 240 240 242 244 244 243 243 242 241 243 242 241 242 244 246 248 250 252 254 258 261 265 268 271
297 295 292 289 286 283 280 276 272 270 267 263 259 254 251 248 244 241 240 239 239 240 243 243 242 242 240 239 239 240 241 243 243 244 246 249 251 255 258 260 264 269 272
297 297 294 290 288 284 280 276 272 268 264 261 256 252 249 245 242 239 240 239 239 239 241 240 240 238 237 237 239 240 242 242 243 245 248 249 251 255 258 261 265 268 272
298 298 295 292 290 286 281 276 271 267 263 259 255 250 247 244 241 238 238 238 238 238 238 238 237 236 235 234 235 239 241 242 242 245 248 249 252 257 261 261 263 268 272
299 298 295 292 291 287 281 276 270 264 260 257 252 247 245 243 240 238 237 236 235 233 234 234 234 234 233 232 234 239 242 242 243 244 246 249 251 257 259 261 264 269 272
299 298 295 292 291 287 281 275 267 260 258 253 248 243 243 241 238 236 234 231 231 231 231 233 233 233 230 231 234 239 241 241 243 245 247 249 251 254 258 263 265 267 272
299 298 297 292 289 286 282 274 265 258 254 250 246 243 241 240 236 232 231 230 231 231 231 231 231 231 230 231 234 238 240 241 242 244 248 250 252 254 258 262 264 266 273
Height
5769 5770 5770 5771 5771 5772 5773 5774 5775 5776 5777 5778 5780 5781 5783 5784 5786 5787 5789 5790 5791 5792 5793 5794 5794 5795 5796 5796 5796 5796 5796 5796 5796 5795 5795 5794 5793 5792 5791 5790 5788 5787 5784
5758 5758 5759 5760 5760 5761 5762 5763 5763 5765 5766 5767 5769 5770 5772 5773 5775 5777 5778 5780 5781 5783 5784 5785 5786 5787 5788 5788 5788 5789 5789 5789 5789 5788 5788 5787 5786 5785 5784 5783 5781 5780 5778
5745 5746 5747 5748 5748 5748 5749 5750 5751 5752 5754 5755 5757 5758 5760 5762 5764 5765 5767 5769 5771 5773 5774 5776 5777 5778 5779 5780 5780 5781 5781 5781 5781 5781 5780 5780 5779 5778 5777 5776 5774 5773 5771
5731 5732 5733 5734 5734 5734 5735 5736 5737 5738 5739 5741 5743 5745 5747 5749 5751 5753 5755 5757 5759 5762 5764 5765 5767 5768 5769 5770 5771 5772 5772 5772 5773 5773 5772 5772 5771 5770 5769 5768 5767 5765 5763
5716 5717 5718 5719 5719 5719 5720 5721 5722 5723 5725 5726 5728 5730 5732 5735 5737 5740 5743 5745 5747 5750 5752 5754 5756 5758 5759 5760 5762 5762 5763 5763 5764 5764 5764 5763 5763 5763 5762 5761 5759 5758 5756
5701 5702 5703 5703 5703 5704 5704 5705 5706 5707 5709 5711 5712 5714 5717 5719 5722 5725 5728 5731 5734 5737 5739 5742 5744 5746 5748 5750 5751 5752 5753 5754 5755 5755 5755 5755 5755 5754 5754 5752 5751 5750 5748
5685 5686 5686 5687 5687 5687 5688 5689 5690 5691 5693 5694 5695 5698 5701 5703 5706 5709 5713 5716 5720 5723 5725 5728 5731 5733 5736 5738 5740 5741 5743 5744 5745 5746 5746 5746 5746 5746 5745 5744 5743 5741 5740
5670 5670 5670 5670 5671 5671 5671 5672 5673 5674 5676 5677 5678 5680 5684 5688 5691 5693 5696 5700 5704 5707 5710 5713 5717 5720 5723 5726 5728 5730 5732 5734 5735 5736 5736 5737 5737 5737 5736 5735 5734 5733 5731
5656 5655 5655 5654 5654 5655 5655 5656 5656 5657 5659 5661 5661 5663 5666 5671 5674 5678 5680 5683 5687 5691 5695 5698 5702 5705 5709 5712 5715 5718 5720 5722 5724 5726 5726 5727 5728 5727 5727 5726 5725 5724 5722
5642 5641 5641 5640 5640 5640 5640 5640 5640 5641 5642 5644 5645 5646 5649 5653 5656 5661 5665 5667 5670 5674 5678 5682 5686 5690 5693 5697 5701 5704 5707 5709 5712 5714 5716 5717 5718 5717 5717 5717 5716 5715 5713
5629 5628 5627 5626 5626 5625 5625 5625 5625 5626 5627 5628 5629 5631 5633 5636 5638 5642 5648 5652 5655 5659 5662 5666 5670 5674 5678 5682 5686 5690 5694 5697 5700 5703 5705 5706 5707 5707 5707 5707 5706 5705 5703
5616 5615 5614 5613 5612 5611 5610 5610 5610 5610 5611 5613 5614 5615 5617 5620 5623 5625 5630 5635 5639 5644 5647 5650 5655 5659 5663 5667 5671 5676 5679 5683 5687 5690 5693 5695 5696 5697 5697 5697 5696 5694 5693
5604 5602 5600 5599 5598 5597 5596 5595 5595 5596 5596 5597 5598 5600 5601 5604 5607 5609 5613 5617 5622 5627 5631 5635 5639 5643 5648 5652 5657 5661 5666 5670 5674 5677 5680 5683 5685 5686 5686 5686 5685 5684 5683
5591 5588 5586 5584 5583 5582 5581 5580 5579 5580 5580 5581 5582 5584 5586 5588 5590 5593 5596 5600 5605 5610 5616 5621 5624 5629 5634 5638 5642 5647 5652 5656 5661 5664 5668 5671 5673 5675 5676 5676 5676 5675 5673
5576 5573 5571 5570 5568 5567 5566 5565 5564 5564 5564 5565 5566 5567 5569 5572 5574 5577 5581 5585 5589 5595 5601 5607 5611 5615 5619 5624 5629 5633 5639 5643 5647 5652 5655 5659 5661 5664 5665 5666 5666 5665 5663
5561 5558 5556 5555 5553 5552 5550 5549 5549 5548 5548 5549 5549 5551 5553 5555 5559 5562 5565 5570 5574 5579 5586 5593 5598 5602 5606 5610 5615 5620 5625 5629 5634 5639 5643 5647 5650 5652 5654 5654 5655 5655 5654
5547 5544 5542 5539 5538 5536 5534 5533 5533 5532 5532 5533 5534 5535 5537 5540 5544 5548 5551 5556 5561 5565 5571 5579 5584 5589 5592 5597 5601 5606 5611 5617 5622 5626 5631 5635 5638 5640 5642 5643 5644 5644 5643
5534 5530 5527 5524 5522 5520 5518 5517 5516 5516 5516 5517 5519 5520 5522 5525 5530 5534 5538 5544 5549 5554 5559 5565 5572 5576 5581 5585 5589 5594 5599 5605 5609 5614 5619 5622 5626 5629 5631 5632 5633 5634 5633
5521 5517 5514 5510 5507 5505 5502 5501 5500 5500 5500 5502 5504 5506 5509 5512 5517 5521 5526 5532 5537 5542 5546 5552 5559 5564 5569 5573 5577 5582 5587 5593 5598 5602 5607 5611 5615 5617 5620 5621 5622 5623 5623
5508 5504 5500 5497 5493 5490 5488 5486 5485 5485 5486 5487 5489 5492 5496 5499 5504 5509 5514 5520 5525 5530 5535 5540 5546 5552 5557 5562 5566 5572 5576 5581 5587 5591 5596 5600 5603 5606 5608 5611 5612 5612 5612
5497 5492 5488 5484 5481 5477 5474 5473 5472 5472 5472 5474 5476 5480 5484 5488 5492 5497 5503 5508 5514 5519 5524 5529 5535 5541 5546 5551 5557 5561 5566 5571 5576 5581 5585 5589 5593 5596 5598 5599 5601 5601 5602
5486 5481 5477 5472 5469 5465 5462 5460 5459 5459 5461 5463 5465 5469 5473 5477 5482 5487 5492 5498 5504 5508 5514 5519 5524 5531 5537 5542 5547 5551 5556 5561 5567 5572 5575 5579 5582 5585 5588 5589 5591 5591 5592
5475 5471 5466 5461 5457 5454 5451 5449 5448 5449 5450 5453 5455 5459 5463 5467 5471 5477 5482 5487 5493 5498 5503 5509 5515 5521 5527 5533 5538 5543 5548 5553 5558 5562 5566 5569 5572 5575 5577 5579 5581 5581 5582
5466 5461 5456 5452 5448 5445 5442 5440 5439 5440 5441 5443 5446 5450 5454 5458 5463 5468 5473 5478 5483 5489 5494 5500 5506 5512 5518 5524 5529 5535 5539 5544 5549 5553 5556 5560 5563 5566 5568 5570 5571 5572 5572
5457 5452 5448 5444 5441 5438 5435 5433 5432 5432 5434 5436 5439 5442 5446 5450 5455 5459 5464 5470 5475 5481 5486 5492 5498 5504 5510 5516 5521 5526 5531 5535 5540 5544 5548 5552 5555 5557 5559 5561 5562 5563 5563
5449 5445 5441 5437 5434 5431 5429 5427 5426 5426 5428 5430 5433 5435 5439 5442 5447 5452 5457 5462 5468 5474 5479 5485 5491 5497 5502 5508 5513 5518 5523 5528 5532 5537 5540 5543 5546 5548 5551 5553 5554 5554 5554